Tracking 29489 objects as of 9-Sep-2024
HD Live streaming from Space Station
objects crossing your sky now

FENGYUN 1C DEB

Track FENGYUN 1C DEB now!
10-day predictions


NORAD ID: 37044
Int'l Code: 1999-025EEC
Perigee: 638.9 km
Apogee: 1,453.3 km
Inclination: 98.9 °
Period: 106.0 minutes
Semi major axis: 7417 km
RCS: 0.0003 m2 (small)
Launch date: May 10, 1999
Source: People's Republic of China (PRC)
Launch site: Taiyaun Space Center, China (TSC)

Note: This is SATELLITE DEBRIS
Your satellite tracking list
Your tracking list is empty




NASA's NSSDC Master Catalog

Two Line Element Set (TLE):
1 37044U 99025EEC 24241.58786433  .00005440  00000-0  27349-2 0  9990
2 37044  98.9444  14.7162 0549028 320.0427  36.1495 13.59103265776930
Source of the keplerian elements: AFSPC